Date String (YYYY-MM-DD hh:mm:ss) UTC,Instrument flags,absolute air pressure of the measurement (hPa),sample flow rate (lpm),inlet stack bypass flow (lpm),air temperature of the measurement (°C),ambient temperature measured by the external sensor (°C),aerosol sample conditioner tube jacket temperature (°C),OPC LED temperature (°C),internal box temperature (°C),relative humidity of the measurement (%),span deviation,mass concentration of particles derived from Lorenz-Mie calculation of OPC scattering (μg/m³),mass concentration of particles derived from Lorenz-Mie calculation of OPC scattering (μg/m³),mass concentration of particles derived from Lorenz-Mie calculation of OPC scattering (μg/m³)
DateTimeUTC,F1_M11,P_M11,Q1_M11,Q2_M11,T1_M11,T2_M11,T3_M11,T4_M11,T5_M11,U1_M11,ZSPAN_M11,X0_M11,X2_M11,X1_M11
2023-09-27 12:00:00,SystemResetWarning,0832.5,5.00,000.00,029.0,027.6,000.0,037.5,030.7,18.8,0001.3,0016.51,0006.22,0004.89
2023-09-27 12:01:00,SystemResetWarning,0832.5,5.00,000.00,029.0,027.5,000.0,037.5,030.7,18.8,0001.4,0016.59,0006.27,0004.89
2023-09-27 12:02:00,SystemResetWarning,0832.5,5.01,000.00,029.0,027.6,000.0,037.5,030.7,19.0,0001.0,0015.84,0006.33,0004.89
2023-09-27 12:03:00,SystemResetWarning,0832.6,5.00,000.00,029.0,027.6,000.0,037.5,030.7,19.0,0001.2,0014.47,0006.38,0004.90
2023-09-27 12:04:00,SystemResetWarning,0832.6,5.00,000.00,029.0,027.6,000.0,037.5,030.7,18.9,0001.4,0014.07,0006.38,0004.91
2023-09-27 12:05:00,SystemResetWarning,0832.6,5.01,000.00,029.0,027.6,000.0,037.5,030.7,18.9,0001.1,0014.12,0006.36,0004.92
2023-09-27 12:06:00,SystemResetWarning,0832.6,5.00,000.00,029.1,027.6,000.0,037.5,030.7,19.0,0000.6,0013.85,0006.31,0004.93
2023-09-27 12:07:00,SystemResetWarning,0832.6,5.00,000.00,029.1,027.6,000.0,037.5,030.7,19.0,0000.7,0013.81,0006.30,0004.93
2023-09-27 12:08:00,SystemResetWarning,0832.7,5.00,000.00,029.1,027.7,000.0,037.5,030.7,19.0,0000.2,0014.70,0006.35,0004.96
2023-09-27 12:09:00,SystemResetWarning,0832.6,5.00,000.00,029.1,027.7,000.0,037.5,030.8,18.9,0000.0,0015.09,0006.37,0004.98
2023-09-27 12:10:00,SystemResetWarning,0832.6,5.00,000.00,029.1,027.7,000.0,037.5,030.7,18.8,0000.0,0014.66,0006.35,0004.99
2023-09-27 12:11:00,SystemResetWarning,0832.6,5.00,000.00,029.1,027.7,000.0,037.5,030.8,19.0,0000.0,0015.21,0006.42,0005.00
2023-09-27 12:12:00,SystemResetWarning,0832.7,5.00,000.00,029.1,027.7,000.0,037.5,030.8,19.0,0000.0,0015.40,0006.38,0005.01
2023-09-27 12:13:00,SystemResetWarning,0832.7,4.99,000.00,029.1,027.7,000.0,037.5,030.7,19.0,0000.9,0015.48,0006.32,0005.01
2023-09-27 12:14:00,SystemResetWarning,0832.7,4.99,000.00,029.1,027.7,000.0,037.5,030.7,18.6,0001.3,0015.84,0006.34,0005.02
2023-09-27 12:15:00,SystemResetWarning,0832.7,4.99,000.00,029.1,027.7,000.0,037.5,030.7,18.5,0001.7,0016.05,0006.35,0005.01
2023-09-27 12:16:00,SystemResetWarning,0832.7,5.00,000.00,029.1,027.7,000.0,037.6,030.8,18.9,0002.9,0016.34,0006.38,0005.01
2023-09-27 12:17:00,SystemResetWarning,0832.6,5.01,000.00,029.1,027.7,000.0,037.6,030.8,19.0,0003.1,0016.92,0006.43,0005.01
2023-09-27 12:18:00,SystemResetWarning,0832.7,5.01,000.00,029.1,027.7,000.0,037.6,030.8,18.9,0003.4,0018.78,0006.55,0005.01
2023-09-27 12:19:00,SystemResetWarning,0832.7,5.00,000.00,029.1,027.7,000.0,037.6,030.8,18.9,0003.8,0019.36,0006.61,0005.00
2023-09-27 12:20:00,SystemResetWarning,0832.6,5.00,000.00,029.1,027.7,000.0,037.6,030.8,18.8,0003.8,0020.72,0006.62,0004.97
2023-09-27 12:21:00,SystemResetWarning,0832.6,4.99,000.00,029.1,027.8,000.0,037.6,030.8,18.5,0003.6,0021.89,0006.71,0004.97
2023-09-27 12:22:00,SystemResetWarning,0832.7,5.00,000.00,029.1,027.8,000.0,037.6,030.8,18.2,0003.4,0022.43,0006.72,0004.95
2023-09-27 12:23:00,SystemResetWarning,0832.7,5.00,000.00,029.1,027.7,000.0,037.6,030.8,17.9,0003.7,0023.21,0006.84,0004.95
2023-09-27 12:24:00,SystemResetWarning,0832.7,5.00,000.00,029.1,027.7,000.0,037.6,030.8,17.8,0003.6,0023.49,0006.96,0004.95
2023-09-27 12:25:00,SystemResetWarning,0832.8,5.00,000.00,029.1,027.7,000.0,037.6,030.8,17.9,0003.7,0024.14,0007.00,0004.94
2023-09-27 12:26:00,SystemResetWarning,0832.7,5.00,000.00,029.2,027.7,000.0,037.6,030.8,17.8,0003.8,0025.35,0007.05,0004.93
2023-09-27 12:27:00,SystemResetWarning,0832.7,5.00,000.00,029.2,027.7,000.0,037.6,030.8,17.9,0001.5,0026.96,0007.09,0004.91
2023-09-27 12:28:00,SystemResetWarning,0832.7,5.00,000.00,029.2,027.7,000.0,037.6,030.8,17.8,0000.0,0027.26,0007.15,0004.89
2023-09-27 12:29:00,SystemResetWarning,0832.7,5.00,000.00,029.2,027.8,000.0,037.6,030.8,17.9,0000.0,0026.41,0007.10,0004.87
2023-09-27 12:30:00,SystemResetWarning,0832.8,5.01,000.00,029.2,027.8,000.0,037.6,030.8,18.3,0000.0,0025.95,0007.07,0004.86
2023-09-27 12:31:00,SystemResetWarning,0832.7,5.01,000.00,029.2,027.8,000.0,037.6,030.8,18.5,0001.6,0024.58,0007.14,0004.87
2023-09-27 12:32:00,SystemResetWarning,0832.9,5.00,000.00,029.2,027.8,000.0,037.6,030.8,18.4,0002.2,0024.55,0007.14,0004.86
2023-09-27 12:33:00,SystemResetWarning,0832.8,5.00,000.00,029.2,027.8,000.0,037.6,030.8,18.4,0002.4,0023.74,0007.16,0004.85
2023-09-27 12:34:00,SystemResetWarning,0832.8,5.00,000.00,029.2,027.8,000.0,037.6,030.8,18.5,0001.7,0023.53,0007.12,0004.83
2023-09-27 12:35:00,SystemResetWarning,0833.0,5.00,000.00,029.2,027.8,000.0,037.6,030.8,18.8,0001.7,0023.97,0007.07,0004.82
2023-09-27 12:36:00,SystemResetWarning,0832.8,4.99,000.00,029.2,027.7,000.0,037.6,030.8,18.8,0002.2,0023.56,0007.11,0004.81
2023-09-27 12:37:00,SystemResetWarning,0832.8,4.99,000.00,029.2,027.7,000.0,037.6,030.8,18.9,0002.2,0023.93,0007.12,0004.81
2023-09-27 12:38:00,SystemResetWarning,0832.8,5.01,000.00,029.2,027.7,000.0,037.6,030.8,19.4,0002.0,0023.65,0007.19,0004.80
2023-09-27 12:39:00,SystemResetWarning,0833.1,5.01,000.00,029.2,027.7,000.0,037.6,030.8,19.2,0002.3,0024.12,0007.23,0004.81
2023-09-27 12:40:00,SystemResetWarning,0833.0,5.00,000.00,029.2,027.7,000.0,037.6,030.8,19.6,0002.2,0024.15,0007.27,0004.81
2023-09-27 12:41:00,SystemResetWarning,0833.0,5.00,000.00,029.2,027.7,000.0,037.6,030.8,19.9,0002.1,0024.02,0007.29,0004.82
2023-09-27 12:42:00,SystemResetWarning,0833.0,4.99,000.00,029.2,027.7,000.0,037.6,030.8,20.3,0001.9,0024.67,0007.26,0004.81
2023-09-27 12:43:00,SystemResetWarning,0832.9,5.00,000.00,029.2,027.7,000.0,037.6,030.8,20.3,0001.9,0024.75,0007.25,0004.80
2023-09-27 12:44:00,SystemResetWarning,0833.1,4.99,000.00,029.2,027.7,000.0,037.6,030.8,20.6,0001.5,0026.03,0007.22,0004.79
2023-09-27 12:45:00,SystemResetWarning,0833.1,5.02,000.00,029.1,027.6,000.0,037.6,030.8,18.4,0001.4,0027.76,0007.21,0004.80
2023-09-27 12:46:00,SystemResetWarning,0833.1,5.00,000.00,029.1,027.6,000.0,037.6,030.7,15.9,0001.4,0027.78,0007.23,0004.81
2023-09-27 12:47:00,SystemResetWarning,0832.9,4.99,000.00,029.1,027.6,000.0,037.6,030.7,15.9,0001.0,0028.01,0007.23,0004.81
2023-09-27 12:48:00,SystemResetWarning,0833.0,4.99,000.00,029.1,027.6,000.0,037.6,030.7,15.7,0001.0,0029.50,0007.24,0004.83
2023-09-27 12:49:00,SystemResetWarning,0833.0,4.99,000.00,029.1,027.6,000.0,037.6,030.7,15.4,0001.6,0027.78,0007.22,0004.84
2023-09-27 12:50:00,SystemResetWarning,0833.0,4.99,000.00,029.1,027.6,000.0,037.6,030.7,15.6,0001.4,0026.87,0007.15,0004.85
2023-09-27 12:51:00,SystemResetWarning,0833.0,5.00,000.00,029.1,027.6,000.0,037.6,030.7,15.6,0001.4,0026.39,0007.12,0004.85
2023-09-27 12:52:00,SystemResetWarning,0832.9,5.01,000.00,029.1,027.6,000.0,037.6,030.7,15.3,0000.3,0027.17,0007.09,0004.85
2023-09-27 12:53:00,SystemResetWarning,0832.9,5.01,000.00,029.1,027.5,000.0,037.6,030.7,15.2,0001.2,0027.17,0007.05,0004.86
2023-09-27 12:54:00,SystemResetWarning,0832.9,5.00,000.00,029.0,027.5,000.0,037.6,030.6,15.1,0002.3,0026.91,0007.06,0004.87
2023-09-27 12:55:00,SystemResetWarning,0833.0,4.99,000.00,029.0,027.5,000.0,037.6,030.6,15.2,0002.0,0025.91,0007.08,0004.87
2023-09-27 12:56:00,SystemResetWarning,0832.9,4.99,000.00,029.0,027.5,000.0,037.6,030.6,15.5,0002.4,0024.32,0007.14,0004.89
2023-09-27 12:57:00,SystemResetWarning,0833.1,5.00,000.00,029.0,027.5,000.0,037.6,030.7,15.8,0001.9,0023.54,0007.19,0004.91
2023-09-27 12:58:00,SystemResetWarning,0832.9,5.00,000.00,029.0,027.5,000.0,037.6,030.6,15.6,0001.5,0023.71,0007.17,0004.92
2023-09-27 12:59:00,SystemResetWarning,0833.0,5.00,000.00,029.0,027.6,000.0,037.6,030.7,15.5,0001.1,0022.05,0007.14,0004.91
